[[{"header":{"parameterUnit":"m.s-1","parameterCategory":1,"la1":30.2991,"la2":30.254,"lo1":-89.0895,"lo2":-89.0444,"dy":0.0017,"dx":0.0017,"nx":28,"ny":28,"refTime":"2025-09-11T21:00:00:Z","depth":0,"parameterNumber":2,"parameterNumberName":"U-component_of_WINDS"},"data":[0,0,0,0,0,0,0,0,0,0,0,0,0,0,0,0,0,0,0,0,0,0,0,0,0,0,0,0,0,0,0,0,0,0,0,0,0,0,0,0,0,0,0,0,0,0,0,0,0,0,0,0,0,0,0,0,0,0,-1.8163,-1.8163,0,-1.815,-1.815,-1.815,-1.8106,-1.8105,-1.8104,-1.8103,-1.809,-1.8091,-1.8091,0,0,0,0,0,0,0,0,0,0,0,0,0,-1.8149,-1.815,-1.8163,-1.8163,-1.8163,-1.815,-1.815,-1.815,-1.8106,-1.8104,-1.8103,-1.8102,-1.809,-1.8091,-1.8091,0,0,0,0,0,0,0,0,0,0,0,0,0,-1.8148,-1.815,-1.8163,-1.8139,-1.8137,-1.815,-1.815,-1.815,-1.8106,-1.8104,-1.8103,-1.8102,-1.809,-1.8091,-1.8092,-1.8127,0,0,-1.8094,-1.8095,0,0,0,0,0,0,0,0,-1.8148,-1.8148,-1.8143,-1.8141,-1.8138,-1.8128,-1.8141,-1.8142,-1.8106,-1.8118,-1.8103,-1.8101,-1.8104,-1.8104,-1.8105,-1.8127,-1.8126,-1.8094,-1.8095,-1.8095,-1.8096,0,0,0,0,0,0,0,-1.8148,-1.8149,-1.8158,-1.8143,-1.814,-1.8129,-1.8127,-1.8141,-1.8119,-1.8117,-1.8113,-1.8112,-1.8102,-1.8104,-1.8104,-1.8126,-1.8094,-1.8095,-1.8096,-1.8096,-1.8179,-1.818,0,0,0,0,0,0,-1.8151,-1.8149,-1.8158,-1.8158,-1.8139,-1.8131,-1.8128,-1.8133,-1.8119,-1.8116,-1.8114,-1.811,-1.8103,-1.8103,-1.8103,-1.8145,-1.8095,-1.8096,-1.8097,-1.8177,-1.8179,-1.8181,0,0,0,0,0,0,-1.8151,-1.8153,-1.8159,-1.8152,-1.8152,-1.8132,-1.8138,-1.8133,-1.8135,-1.8117,-1.8113,-1.8119,-1.8102,-1.8102,-1.8122,-1.8144,-1.8097,-1.8097,-1.8175,-1.8177,-1.818,-1.823,0,0,0,0,0,0,-1.8151,-1.8153,-1.8166,-1.8153,-1.8153,-1.8178,-1.8139,-1.8134,-1.8136,-1.8132,-1.8121,-1.8118,-1.8101,-1.8121,-1.8123,-1.8145,-1.8098,-1.8173,-1.8176,-1.8179,-1.8226,-1.8233,-1.824,0,0,0,0,0,-1.8151,-1.818,-1.8167,-1.8168,-1.8169,-1.8179,-1.8179,-1.8158,-1.8138,-1.8152,-1.814,-1.8118,-1.8142,-1.8123,-1.8125,-1.8148,-1.8171,-1.8175,-1.8179,-1.8223,-1.8232,-1.824,0,0,0,0,0,0,-1.8196,-1.8178,-1.8163,-1.8189,-1.8186,-1.8171,-1.8188,-1.8169,-1.8171,-1.8167,-1.8142,-1.814,-1.8163,-1.8157,-1.8137,-1.8182,-1.8153,-1.8157,-1.8186,-1.8194,-1.8201,-1.8202,-1.8099,0,0,0,0,0,-1.821,-1.8219,-1.8203,-1.8227,-1.8227,-1.8208,-1.8211,-1.8196,-1.8191,-1.819,-1.818,-1.8177,-1.8183,-1.8188,-1.8193,-1.8225,-1.8222,-1.8241,-1.8248,-1.8254,-1.8258,-1.8275,-1.8284,-1.8193,-1.8193,-1.8193,0,0,-1.8237,-1.8228,-1.8236,-1.8237,-1.8232,-1.8243,-1.8207,-1.8219,-1.8227,-1.8192,-1.821,-1.8203,-1.8198,-1.8224,-1.8235,-1.822,-1.8283,-1.8259,-1.8263,-1.8264,-1.828,-1.8289,-1.8296,-1.8195,-1.8195,-1.8194,0,0,-1.8292,-1.8286,-1.8307,-1.8303,-1.8297,-1.8285,-1.829,-1.8278,-1.8272,-1.829,-1.8264,-1.8273,-1.8285,-1.8282,-1.8283,-1.8338,-1.8318,-1.8341,-1.8378,-1.8395,-1.8402,-1.8408,-1.8429,-1.8437,-1.8345,-1.8345,-1.8345,0,-1.8327,-1.8342,-1.832,-1.8335,-1.8336,-1.8305,-1.8326,-1.8323,-1.8319,-1.8321,-1.8304,-1.8319,-1.8313,-1.8339,-1.8352,-1.8353,-1.8359,-1.8342,-1.8403,-1.8409,-1.8414,-1.8434,-1.8442,-1.8348,-1.8347,-1.8347,-1.8347,0,-1.8386,-1.8397,-1.8414,-1.8411,-1.8415,-1.8433,-1.8413,-1.842,-1.8404,-1.8394,-1.8413,-1.8405,-1.8408,-1.8413,-1.8398,-1.8437,-1.8428,-1.8407,-1.8377,-1.8426,-1.8444,-1.8451,-1.8352,-1.8351,-1.835,-1.8349,0,0,-1.8469,-1.8455,-1.8462,-1.8461,-1.8452,-1.846,-1.8477,-1.848,-1.8487,-1.8485,-1.8499,-1.851,-1.8491,-1.8492,-1.8476,-1.8491,-1.8537,-1.8468,-1.8468,-1.8482,-1.8581,-1.8597,-1.8606,-1.8523,-1.8525,-1.8526,-1.8581,0,-1.8523,-1.8551,-1.8531,-1.8563,-1.8573,-1.8544,-1.8558,-1.8555,-1.8546,-1.8553,-1.8543,-1.8551,-1.8525,-1.8526,-1.8539,-1.8528,-1.8556,-1.8524,-1.8537,-1.8537,-1.854,-1.8615,-1.8632,-1.8685,-1.8588,-1.8589,-1.859,0,-1.8589,-1.8591,-1.8623,-1.8614,-1.8617,-1.8631,-1.8633,-1.8641,-1.8636,-1.8629,-1.863,-1.8611,-1.8627,-1.8597,-1.8619,-1.8598,-1.8602,-1.8598,-1.8599,-1.86,-1.8567,-1.8619,-1.8701,-1.871,-1.8601,-1.86,-1.8599,0,-1.8648,-1.8659,-1.868,-1.868,-1.8669,-1.8679,-1.8675,-1.8669,-1.8673,-1.8675,-1.8677,-1.8681,-1.8683,-1.8687,-1.8669,-1.8649,-1.8695,-1.8663,-1.8689,-1.869,-1.8701,-1.87,-1.8786,-1.8702,-1.8702,-1.8702,-1.8701,0,-1.871,-1.8732,-1.8706,-1.872,-1.8743,-1.8721,-1.8744,-1.8737,-1.8732,-1.8744,-1.8718,-1.873,-1.8706,-1.8715,-1.8701,-1.8722,-1.8723,-1.8718,-1.8714,-1.8721,-1.8722,-1.8724,-1.872,-1.8704,-1.8703,-1.8703,-1.8702,0,-1.878,-1.8764,-1.8786,-1.8774,-1.8771,-1.8789,-1.8779,-1.8791,-1.878,-1.8795,-1.8797,-1.878,-1.8789,-1.8772,-1.8779,-1.877,-1.8801,-1.8791,-1.8802,-1.88,-1.8827,-1.8825,-1.8918,-1.8929,-1.8837,-1.8838,-1.8839,0,-1.8822,-1.8837,-1.8828,-1.8834,-1.8831,-1.8841,-1.8845,-1.8824,-1.8829,-1.8826,-1.8838,-1.8846,-1.885,-1.8867,-1.8855,-1.8861,-1.8852,-1.8883,-1.8852,-1.8859,-1.8853,-1.8853,-1.8855,-1.889,-1.8891,-1.8892,-1.8893,0,-1.8897,-1.8888,-1.8895,-1.8899,-1.8905,-1.8907,-1.8907,-1.8913,-1.8891,-1.8898,-1.8908,-1.8912,-1.8919,-1.8927,-1.893,-1.8926,-1.8907,-1.8903,-1.8909,-1.8917,-1.8923,-1.8921,-1.8821,-1.8901,-1.89,-1.89,-1.8899,-1.8899,-1.8954,-1.8968,-1.8963,-1.8971,-1.897,-1.8971,-1.8982,-1.8972,-1.898,-1.8985,-1.8972,-1.8985,-1.8981,-1.8983,-1.8981,-1.8991,-1.8977,-1.8986,-1.8989,-1.8992,-1.8997,-1.8921,-1.8991,-1.8991,-1.8991,-1.8991,-1.899,0,-1.9029,-1.9025,-1.9033,-1.9035,-1.9042,-1.9022,-1.9022,-1.9029,-1.9041,-1.9039,-1.9044,-1.9056,-1.9064,-1.9053,-1.9059,-1.9069,-1.906,-1.9072,-1.9071,-1.9071,-1.9008,-1.9002,-1.9079,-1.9079,-1.9079,-1.9079,-1.9079,-1.9079,-1.9069,-1.9091,-1.9082,-1.9103,-1.9098,-1.9111,-1.9112,-1.9114,-1.9112,-1.9126,-1.9133,-1.9126,-1.9121,-1.9126,-1.9133,-1.9129,-1.9133,-1.9148,-1.9142,-1.9084,-1.9075,-1.9067,-1.9061,-1.9149,-1.9149,-1.9203,-1.9204,-1.9204]},{"header":{"parameterUnit":"m.s-1","parameterCategory":1,"la1":30.2991,"la2":30.254,"lo1":-89.0895,"lo2":-89.0444,"dy":0.0017,"dx":0.0017,"nx":28,"ny":28,"refTime":"2025-09-11T21:00:00:Z","depth":0,"parameterNumber":3,"parameterNumberName":"V-component_of_WINDS"},"data":[0,0,0,0,0,0,0,0,0,0,0,0,0,0,0,0,0,0,0,0,0,0,0,0,0,0,0,0,0,0,0,0,0,0,0,0,0,0,0,0,0,0,0,0,0,0,0,0,0,0,0,0,0,0,0,0,0,0,-1.8172,-1.8172,0,-1.8162,-1.8162,-1.8162,-1.8122,-1.8121,-1.812,-1.8119,-1.8109,-1.811,-1.8111,0,0,0,0,0,0,0,0,0,0,0,0,0,-1.8157,-1.8158,-1.8172,-1.8172,-1.8172,-1.8162,-1.8162,-1.8162,-1.8122,-1.8121,-1.812,-1.8118,-1.8109,-1.811,-1.8111,0,0,0,0,0,0,0,0,0,0,0,0,0,-1.8157,-1.8158,-1.8172,-1.8151,-1.8149,-1.8162,-1.8162,-1.8162,-1.8122,-1.8121,-1.8119,-1.8118,-1.8109,-1.811,-1.8111,-1.8144,0,0,-1.8114,-1.8114,0,0,0,0,0,0,0,0,-1.8157,-1.8158,-1.8154,-1.8152,-1.815,-1.8142,-1.8153,-1.8156,-1.8122,-1.8132,-1.8119,-1.8117,-1.8121,-1.8121,-1.8122,-1.8144,-1.8143,-1.8114,-1.8114,-1.8115,-1.8115,0,0,0,0,0,0,0,-1.8157,-1.8158,-1.8168,-1.8154,-1.8151,-1.8142,-1.814,-1.8154,-1.8135,-1.8131,-1.8128,-1.8128,-1.812,-1.8122,-1.8122,-1.8143,-1.8114,-1.8114,-1.8115,-1.8115,-1.8192,-1.8194,0,0,0,0,0,0,-1.816,-1.8158,-1.8168,-1.8168,-1.815,-1.8143,-1.8141,-1.8146,-1.8134,-1.8131,-1.8129,-1.8126,-1.8121,-1.8121,-1.8121,-1.816,-1.8115,-1.8116,-1.8116,-1.8191,-1.8193,-1.8194,0,0,0,0,0,0,-1.816,-1.8162,-1.8169,-1.8162,-1.8162,-1.8145,-1.815,-1.8146,-1.8148,-1.8133,-1.8129,-1.8134,-1.812,-1.812,-1.8139,-1.8159,-1.8116,-1.8117,-1.8189,-1.8191,-1.8193,-1.8238,0,0,0,0,0,0,-1.816,-1.8162,-1.8174,-1.8163,-1.8163,-1.8187,-1.8151,-1.8147,-1.8149,-1.8145,-1.8136,-1.8134,-1.8119,-1.8138,-1.814,-1.816,-1.8117,-1.8187,-1.819,-1.8193,-1.8235,-1.8242,-1.8248,0,0,0,0,0,-1.8159,-1.8187,-1.8175,-1.8176,-1.8178,-1.8188,-1.8188,-1.817,-1.8151,-1.8164,-1.8154,-1.8134,-1.8157,-1.814,-1.8142,-1.8163,-1.8186,-1.8189,-1.8192,-1.8232,-1.8241,-1.8248,0,0,0,0,0,0,-1.8202,-1.8185,-1.8172,-1.8197,-1.8194,-1.8181,-1.8196,-1.8179,-1.8182,-1.8178,-1.8155,-1.8154,-1.8176,-1.8171,-1.8153,-1.8195,-1.8168,-1.8172,-1.8197,-1.8205,-1.8211,-1.8213,-1.8118,0,0,0,0,0,-1.8214,-1.8223,-1.8208,-1.8232,-1.8231,-1.8214,-1.8218,-1.8204,-1.82,-1.8199,-1.819,-1.8188,-1.8195,-1.8199,-1.8205,-1.8234,-1.8232,-1.8249,-1.8255,-1.8261,-1.8265,-1.828,-1.8288,-1.8205,-1.8205,-1.8205,0,0,-1.824,-1.8232,-1.8239,-1.824,-1.8236,-1.8247,-1.8213,-1.8225,-1.8233,-1.8201,-1.8218,-1.8212,-1.8208,-1.8232,-1.8242,-1.8229,-1.8287,-1.8265,-1.8269,-1.827,-1.8284,-1.8292,-1.8299,-1.8207,-1.8207,-1.8207,0,0,-1.8292,-1.8286,-1.8305,-1.8302,-1.8297,-1.8285,-1.829,-1.8279,-1.8274,-1.8291,-1.8267,-1.8276,-1.8287,-1.8286,-1.8286,-1.8337,-1.8319,-1.8339,-1.8373,-1.8388,-1.8395,-1.8401,-1.842,-1.8427,-1.8343,-1.8343,-1.8343,0,-1.8324,-1.8338,-1.8318,-1.8331,-1.8333,-1.8304,-1.8323,-1.8321,-1.8318,-1.832,-1.8304,-1.8318,-1.8313,-1.8337,-1.835,-1.8351,-1.8356,-1.8341,-1.8396,-1.8401,-1.8406,-1.8424,-1.8431,-1.8346,-1.8345,-1.8345,-1.8345,0,-1.8379,-1.8389,-1.8405,-1.8403,-1.8406,-1.8422,-1.8404,-1.841,-1.8396,-1.8386,-1.8404,-1.8397,-1.84,-1.8405,-1.8391,-1.8427,-1.8418,-1.84,-1.8372,-1.8417,-1.8433,-1.844,-1.8349,-1.8348,-1.8348,-1.8347,0,0,-1.8458,-1.8443,-1.845,-1.8448,-1.844,-1.8448,-1.8463,-1.8466,-1.8472,-1.847,-1.8483,-1.8494,-1.8476,-1.8477,-1.8462,-1.8476,-1.8518,-1.8455,-1.8455,-1.8468,-1.8557,-1.8572,-1.858,-1.8505,-1.8506,-1.8507,-1.8558,0,-1.8508,-1.8533,-1.8515,-1.8544,-1.8553,-1.8525,-1.8539,-1.8535,-1.8526,-1.8533,-1.8523,-1.8531,-1.8507,-1.8508,-1.852,-1.851,-1.8535,-1.8506,-1.8517,-1.8518,-1.852,-1.8589,-1.8605,-1.8653,-1.8564,-1.8565,-1.8566,0,-1.857,-1.8571,-1.8601,-1.8591,-1.8594,-1.8606,-1.8608,-1.8615,-1.861,-1.8603,-1.8603,-1.8586,-1.86,-1.8573,-1.8593,-1.8573,-1.8577,-1.8573,-1.8574,-1.8575,-1.8545,-1.8593,-1.8668,-1.8675,-1.8576,-1.8575,-1.8574,0,-1.8626,-1.8635,-1.8654,-1.8653,-1.8642,-1.8651,-1.8647,-1.8641,-1.8644,-1.8645,-1.8647,-1.865,-1.8652,-1.8655,-1.8639,-1.862,-1.8661,-1.8632,-1.8656,-1.8657,-1.8667,-1.8667,-1.8744,-1.8668,-1.8668,-1.8667,-1.8667,0,-1.8685,-1.8704,-1.8679,-1.8691,-1.8712,-1.869,-1.8712,-1.8704,-1.8699,-1.8709,-1.8685,-1.8695,-1.8673,-1.868,-1.8668,-1.8687,-1.8688,-1.8682,-1.8679,-1.8685,-1.8686,-1.8688,-1.8684,-1.8669,-1.8669,-1.8669,-1.8668,0,-1.8751,-1.8735,-1.8754,-1.8741,-1.8738,-1.8754,-1.8744,-1.8754,-1.8743,-1.8757,-1.8758,-1.8742,-1.875,-1.8733,-1.8739,-1.873,-1.8758,-1.8749,-1.8759,-1.8757,-1.8782,-1.878,-1.8865,-1.8875,-1.8791,-1.8792,-1.8792,0,-1.879,-1.8804,-1.8793,-1.8798,-1.8795,-1.8803,-1.8806,-1.8785,-1.8789,-1.8785,-1.8796,-1.8802,-1.8806,-1.882,-1.8809,-1.8813,-1.8804,-1.8833,-1.8805,-1.8811,-1.8806,-1.8806,-1.8807,-1.884,-1.8841,-1.8842,-1.8842,0,-1.8861,-1.8852,-1.8857,-1.8859,-1.8863,-1.8864,-1.8863,-1.8869,-1.8847,-1.8853,-1.886,-1.8863,-1.8869,-1.8875,-1.8877,-1.8873,-1.8855,-1.8851,-1.8857,-1.8864,-1.887,-1.8868,-1.8776,-1.885,-1.8849,-1.8848,-1.8848,-1.8848,-1.8915,-1.8927,-1.8921,-1.8927,-1.8924,-1.8924,-1.8933,-1.8923,-1.8929,-1.8932,-1.892,-1.893,-1.8925,-1.8926,-1.8924,-1.8932,-1.8919,-1.8927,-1.893,-1.8932,-1.8937,-1.8868,-1.8932,-1.8932,-1.8932,-1.8931,-1.8931,0,-1.8986,-1.898,-1.8986,-1.8986,-1.8991,-1.8972,-1.897,-1.8976,-1.8986,-1.8982,-1.8986,-1.8995,-1.9001,-1.899,-1.8995,-1.9004,-1.8995,-1.9005,-1.9005,-1.9005,-1.8948,-1.8942,-1.9012,-1.9012,-1.9012,-1.9012,-1.9012,-1.9012,-1.9023,-1.9042,-1.9032,-1.9049,-1.9044,-1.9054,-1.9054,-1.9054,-1.9051,-1.9063,-1.9067,-1.906,-1.9054,-1.9057,-1.9062,-1.9059,-1.9062,-1.9075,-1.9069,-1.9016,-1.9009,-1.9001,-1.8996,-1.9076,-1.9076,-1.9126,-1.9126,-1.9126]}]]